Tillbaka till svenska Fidonet
English   Information   Debug  
FILM   0/18
FNEWS_PUBLISH   4926
FN_SYSOP   42201
FN_SYSOP_OLD1   71952
FTP_FIDO   0/2
FTSC_PUBLIC   0/13973
FUNNY   0/4886
GENEALOGY.EUR   0/71
GET_INFO   105
GOLDED   0/408
HAM   5792/16660
HOLYSMOKE   0/6791
HOT_SITES   0/1
HTMLEDIT   0/71
HUB203   466
HUB_100   264
HUB_400   39
HUMOR   0/29
IC   0/2851
INTERNET   0/424
INTERUSER   0/3
IP_CONNECT   719
JAMNNTPD   0/233
JAMTLAND   0/47
KATTY_KORNER   0/41
LAN   0/16
LINUX-USER   0/19
LINUXHELP   0/1155
LINUX   0/22300
LINUX_BBS   0/957
mail   18.68
mail_fore_ok   249
MENSA   0/341
MODERATOR   0/102
MONTE   0/992
MOSCOW_OKLAHOMA   0/1245
MUFFIN   0/783
MUSIC   0/321
N203_STAT   938
N203_SYSCHAT   313
NET203   321
NET204   69
NET_DEV   0/10
NORD.ADMIN   0/101
NORD.CHAT   0/2572
NORD.FIDONET   189
NORD.HARDWARE   0/28
NORD.KULTUR   0/114
NORD.PROG   0/32
NORD.SOFTWARE   0/88
NORD.TEKNIK   0/58
NORD   0/453
OCCULT_CHAT   0/93
OS2BBS   0/787
OS2DOSBBS   0/580
OS2HW   0/42
OS2INET   0/37
OS2LAN   0/134
OS2PROG   0/36
OS2REXX   0/113
OS2USER-L   207
OS2   0/4830
OSDEBATE   0/18996
PASCAL   0/490
PERL   0/457
PHP   0/45
POINTS   0/405
POLITICS   0/29554
POL_INC   0/14731
PSION   103
R20_ADMIN   1133
R20_AMATORRADIO   0/2
R20_BEST_OF_FIDONET   16
R20_CHAT   0/896
R20_DEPP   0/3
R20_DEV   400
R20_ECHO2   1831
R20_ECHOPRES   0/35
R20_ESTAT   0/719
R20_FIDONETPROG...
...RAM.MYPOINT
  0/2
R20_FIDONETPROGRAM   0/22
R20_FIDONET   0/248
R20_FILEFIND   0/24
R20_FILEFOUND   0/22
R20_HIFI   0/3
R20_INFO2   3723
R20_INTERNET   0/12940
R20_INTRESSE   0/60
R20_INTR_KOM   0/99
R20_KANDIDAT.CHAT   42
R20_KANDIDAT   28
R20_KOM_DEV   112
R20_KONTROLL   0/13360
R20_KORSET   0/18
R20_LOKALTRAFIK   0/24
R20_MODERATOR   0/1852
R20_NC   76
R20_NET200   245
R20_NETWORK.OTH...
...ERNETS
  0/13
R20_OPERATIVSYS...
...TEM.LINUX
  0/44
R20_PROGRAMVAROR   0/1
R20_REC2NEC   534
R20_SFOSM   0/341
R20_SF   0/108
R20_SPRAK.ENGLISH   0/1
R20_SQUISH   107
R20_TEST   2
R20_WORST_OF_FIDONET   20
RAR   0/9
RA_MULTI   106
RA_UTIL   0/162
REGCON.EUR   0/2068
REGCON   0/13
SCIENCE   0/1206
SF   0/239
SHAREWARE_SUPPORT   0/5146
SHAREWRE   0/14
SIMPSONS   0/169
STATS_OLD1   0/2539.065
STATS_OLD2   0/2530
STATS_OLD3   0/2395.095
STATS_OLD4   0/1692.25
SURVIVOR   0/495
SYSOPS_CORNER   0/3
SYSOP   0/84
TAGLINES   0/112
TEAMOS2   0/4530
TECH   0/2617
TEST.444   0/105
TRAPDOOR   0/19
TREK   0/755
TUB   0/290
UFO   0/40
UNIX   0/1316
USA_EURLINK   0/102
USR_MODEMS   0/1
VATICAN   0/2740
VIETNAM_VETS   0/14
VIRUS   0/378
VIRUS_INFO   0/201
VISUAL_BASIC   0/473
WHITEHOUSE   0/5187
WIN2000   0/101
WIN32   0/30
WIN95   0/4291
WIN95_OLD1   0/70272
WINDOWS   0/1517
WWB_SYSOP   0/419
WWB_TECH   0/810
ZCC-PUBLIC   0/1
ZEC   4

 
4DOS   0/134
ABORTION   0/7
ALASKA_CHAT   0/506
ALLFIX_FILE   0/1313
ALLFIX_FILE_OLD1   0/7997
ALT_DOS   0/152
AMATEUR_RADIO   0/1039
AMIGASALE   0/14
AMIGA   0/331
AMIGA_INT   0/1
AMIGA_PROG   0/20
AMIGA_SYSOP   0/26
ANIME   0/15
ARGUS   0/924
ASCII_ART   0/340
ASIAN_LINK   0/651
ASTRONOMY   0/417
AUDIO   0/92
AUTOMOBILE_RACING   0/105
BABYLON5   0/17862
BAG   135
BATPOWER   0/361
BBBS.ENGLISH   0/382
BBSLAW   0/109
BBS_ADS   0/5290
BBS_INTERNET   0/507
BIBLE   0/3563
BINKD   0/1119
BINKLEY   0/215
BLUEWAVE   0/2173
CABLE_MODEMS   0/25
CBM   0/46
CDRECORD   0/66
CDROM   0/20
CLASSIC_COMPUTER   0/378
COMICS   0/15
CONSPRCY   0/899
COOKING   41444
COOKING_OLD1   0/24719
COOKING_OLD2   0/40862
COOKING_OLD3   0/37489
COOKING_OLD4   0/35496
COOKING_OLD5   9370
C_ECHO   0/189
C_PLUSPLUS   0/31
DIRTY_DOZEN   0/201
DOORGAMES   0/2285
DOS_INTERNET   0/196
duplikat   6102
ECHOLIST   0/18295
EC_SUPPORT   0/318
ELECTRONICS   0/359
ELEKTRONIK.GER   1534
ENET.LINGUISTIC   0/13
ENET.POLITICS   0/4
ENET.SOFT   0/11701
ENET.SYSOP   34296
ENET.TALKS   0/32
ENGLISH_TUTOR   0/2000
EVOLUTION   0/1335
FDECHO   0/217
FDN_ANNOUNCE   0/7068
FIDONEWS   25062
FIDONEWS_OLD1   0/49742
FIDONEWS_OLD2   0/35949
FIDONEWS_OLD3   0/30874
FIDONEWS_OLD4   0/37224
FIDO_SYSOP   12922
FIDO_UTIL   0/180
FILEFIND   0/209
FILEGATE   0/212
Möte HAM, 16660 texter
 lista första sista föregående nästa
Text 3462, 899 rader
Skriven 2010-01-22 00:30:20 av Amsat List (1:323/120.0)
Ärende: [keps]  orb10021.amsa
=============================
[keps]  orb10021.amsa

Return-Path: <keps-bounces@amsat.org>
X-Rcpt: craig.healy@chowda.com
X-UIDL: 1264137990.2402

SB KEPS @ AMSAT  $ORB10021.O
Orbital Elements  10021.OSCAR

HR AMSAT ORBITAL ELEMENTS FOR OSCAR SATELLITES
FROM WA5QGD FORT WORTH,TX January 21, 2010
Send Subscribe/unsubscribe to KEPS at 
http://www.amsat.org/mailman/listinfo/keps
BID: ORB10021.O
TO ALL RADIO AMATEURS BT

Satellite: AO-07
Catalog number: 07530
Epoch time:      10020.64085776
Element set:    0685
Inclination:      101.4116 deg
RA of node:       042.1862 deg
Eccentricity:    0.0011892
Arg of perigee:   202.9607 deg
Mean anomaly:     157.0933 deg
Mean motion:   12.53577550 rev/day
Decay rate:       -2.7e-07 rev/day^2
Epoch rev:           60996
Checksum:              290

Satellite: FO-29
Catalog number: 24278
Epoch time:      10021.60598263
Element set:     226
Inclination:      098.5239 deg
RA of node:       230.9324 deg
Eccentricity:    0.0351023
Arg of perigee:   144.0008 deg
Mean anomaly:     218.5331 deg
Mean motion:   13.52947023 rev/day
Decay rate:        3.1e-07 rev/day^2
Epoch rev:           66328
Checksum:              276

Satellite: SO-33
Catalog number: 25509
Epoch time:      10020.71275087
Element set:    0635
Inclination:      031.4304 deg
RA of node:       262.4667 deg
Eccentricity:    0.0353620
Arg of perigee:   080.3706 deg
Mean anomaly:     283.6676 deg
Mean motion:   14.28281520 rev/day
Decay rate:      +3.03e-06 rev/day^2
Epoch rev:           58695
Checksum:              294

Satellite: RS-22
Catalog number: 27939
Epoch time:      10020.57057457
Element set:    0993
Inclination:      097.9138 deg
RA of node:       252.1249 deg
Eccentricity:    0.0013814
Arg of perigee:   162.2560 deg
Mean anomaly:     197.9134 deg
Mean motion:   14.63374663 rev/day
Decay rate:       +8.4e-07 rev/day^2
Epoch rev:           33736
Checksum:              323

Satellite: VO-52
Catalog number: 28650
Epoch time:      10020.30853681
Element set:    0417
Inclination:      097.7148 deg
RA of node:       079.3618 deg
Eccentricity:    0.0027874
Arg of perigee:   042.1361 deg
Mean anomaly:     318.1994 deg
Mean motion:   14.81668598 rev/day
Decay rate:      -1.31e-06 rev/day^2
Epoch rev:           25479
Checksum:              326

Satellite: SO-67
Catalog number: 35870
Epoch time:      10021.84247005
Element set:     374
Inclination:      097.3538 deg
RA of node:       074.4328 deg
Eccentricity:    0.0010740
Arg of perigee:   205.1472 deg
Mean anomaly:     265.2685 deg
Mean motion:   15.22927168 rev/day
Decay rate:       4.85e-06 rev/day^2
Epoch rev:            1919
Checksum:              304

Satellite: HO-68
Catalog number: 36122
Epoch time:      10021.62841039
Element set:     112
Inclination:      100.4921 deg
RA of node:       083.4244 deg
Eccentricity:    0.0007296
Arg of perigee:   311.7779 deg
Mean anomaly:     048.2710 deg
Mean motion:   13.16279884 rev/day
Decay rate:       -4.5e-07 rev/day^2
Epoch rev:             493
Checksum:              278

/EX
SB KEPS @ AMSAT  $ORB10021.D
Orbital Elements  10021.MICROS

HR AMSAT ORBITAL ELEMENTS FOR THE MICROSATS
FROM WA5QGD FORT WORTH,TX January 21, 2010
Send Subscribe/unsubscribe to KEPS at 
http://www.amsat.org/mailman/listinfo/keps
BID: ORB10021.D
TO ALL RADIO AMATEURS BT

Satellite: UO-11
Catalog number: 14781
Epoch time:      10021.15528234
Element set:     154
Inclination:      098.0775 deg
RA of node:       072.2917 deg
Eccentricity:    0.0009012
Arg of perigee:   000.2190 deg
Mean anomaly:     359.9067 deg
Mean motion:   14.79760968 rev/day
Decay rate:       -7.2e-07 rev/day^2
Epoch rev:           39006
Checksum:              290

Satellite: AO-16
Catalog number: 20439
Epoch time:      10021.51136976
Element set:     802
Inclination:      098.3132 deg
RA of node:       345.3490 deg
Eccentricity:    0.0010073
Arg of perigee:   240.5053 deg
Mean anomaly:     119.5128 deg
Mean motion:   14.31845273 rev/day
Decay rate:       -2.1e-07 rev/day^2
Epoch rev:            4439
Checksum:              261

Satellite: LO-19
Catalog number: 20442
Epoch time:      10020.62446836
Element set:    0715
Inclination:      098.2749 deg
RA of node:       350.9003 deg
Eccentricity:    0.0011136
Arg of perigee:   237.5541 deg
Mean anomaly:     122.4567 deg
Mean motion:   14.32079072 rev/day
Decay rate:       +7.9e-07 rev/day^2
Epoch rev:           04443
Checksum:              281

Satellite: AO-27
Catalog number: 22825
Epoch time:      10020.79311117
Element set:    0440
Inclination:      098.4703 deg
RA of node:       332.6977 deg
Eccentricity:    0.0008183
Arg of perigee:   349.7366 deg
Mean anomaly:     010.3661 deg
Mean motion:   14.29283959 rev/day
Decay rate:       +3.3e-07 rev/day^2
Epoch rev:           85099
Checksum:              314

Satellite: IO-26
Catalog number: 22826
Epoch time:      10020.81484938
Element set:    0173
Inclination:      098.4610 deg
RA of node:       333.3766 deg
Eccentricity:    0.0008855
Arg of perigee:   344.6628 deg
Mean anomaly:     015.4284 deg
Mean motion:   14.29537757 rev/day
Decay rate:       -2.4e-07 rev/day^2
Epoch rev:           85110
Checksum:              312

Satellite: GO-32
Catalog number: 25397
Epoch time:      10021.79493266
Element set:      93
Inclination:      098.3172 deg
RA of node:       037.2872 deg
Eccentricity:    0.0001130
Arg of perigee:   021.9646 deg
Mean anomaly:     338.1591 deg
Mean motion:   14.23169964 rev/day
Decay rate:        2.5e-07 rev/day^2
Epoch rev:           59922
Checksum:              305

